TimeCST,TemperatureF,Dew PointF,Humidity,Sea Level PressureIn,VisibilityMPH,Wind Direction,Wind SpeedMPH,Gust SpeedMPH,PrecipitationIn,Events,Conditions,WindDirDegrees,DateUTC
12:21 AM,44.6,44.6,100,29.99,10.0,NNW,24.2,28.8,N/A,,Overcast,340,2013-11-26 06:21:00
12:52 AM,45.0,44.1,97,29.97,10.0,NNW,25.3,32.2,N/A,,Overcast,340,2013-11-26 06:52:00
1:52 AM,42.1,41.0,96,30.00,7.0,NW,31.1,38.0,0.01,Rain,Light Rain,320,2013-11-26 07:52:00
2:52 AM,42.1,41.0,96,30.03,8.0,NW,23.0,28.8,0.24,Rain,Rain,320,2013-11-26 08:52:00
3:52 AM,43.0,42.1,97,30.04,7.0,NNW,20.7,-,0.23,Rain,Heavy Rain,330,2013-11-26 09:52:00
4:44 AM,42.8,42.8,100,30.05,10.0,NNW,15.0,-,0.06,Rain,Light Rain,330,2013-11-26 10:44:00
4:52 AM,43.0,42.1,97,30.05,10.0,NNW,17.3,25.3,0.06,Rain,Light Rain,330,2013-11-26 10:52:00
5:52 AM,43.0,42.1,97,30.05,10.0,NW,18.4,27.6,0.07,Rain,Light Rain,310,2013-11-26 11:52:00
6:52 AM,42.1,41.0,96,30.08,10.0,WNW,16.1,27.6,0.03,,Overcast,300,2013-11-26 12:52:00
7:52 AM,42.1,41.0,96,30.07,10.0,NW,21.9,29.9,0.01,,Overcast,320,2013-11-26 13:52:00
8:52 AM,42.1,39.9,92,30.09,10.0,NW,21.9,27.6,N/A,,Overcast,310,2013-11-26 14:52:00
9:52 AM,42.1,41.0,96,30.12,8.0,NW,17.3,25.3,0.00,Rain,Light Rain,310,2013-11-26 15:52:00
10:08 AM,42.8,41.0,93,30.11,4.0,NW,19.6,25.3,0.00,Rain,Light Rain,320,2013-11-26 16:08:00
10:23 AM,42.8,41.0,93,30.11,6.0,NW,18.4,24.2,0.01,Rain,Light Rain,320,2013-11-26 16:23:00
10:52 AM,43.0,42.1,97,30.09,10.0,NW,16.1,-,0.01,,Overcast,320,2013-11-26 16:52:00
11:52 AM,43.0,39.9,89,30.09,10.0,NW,13.8,25.3,N/A,,Overcast,310,2013-11-26 17:52:00
12:52 PM,42.1,39.9,92,30.08,10.0,NW,17.3,28.8,N/A,,Overcast,310,2013-11-26 18:52:00
1:52 PM,42.1,39.9,92,30.07,7.0,NW,19.6,27.6,N/A,,Overcast,310,2013-11-26 19:52:00
2:06 PM,42.8,39.2,87,30.07,7.0,NW,19.6,31.1,N/A,,Overcast,320,2013-11-26 20:06:00
2:52 PM,43.0,39.9,89,30.09,10.0,NW,25.3,34.5,N/A,,Overcast,320,2013-11-26 20:52:00
3:52 PM,41.0,39.0,93,30.12,7.0,NW,20.7,28.8,0.01,Rain,Light Rain,320,2013-11-26 21:52:00
4:52 PM,42.1,39.9,92,30.14,6.0,NW,23.0,28.8,0.00,,Overcast,320,2013-11-26 22:52:00
5:52 PM,43.0,39.9,89,30.18,10.0,NW,20.7,25.3,N/A,,Overcast,320,2013-11-26 23:52:00
6:09 PM,42.8,41.0,93,30.19,10.0,NW,17.3,-,N/A,,Overcast,320,2013-11-27 00:09:00
6:48 PM,44.6,41.0,87,30.20,10.0,NW,18.4,23.0,N/A,,Overcast,320,2013-11-27 00:48:00
6:52 PM,44.1,41.0,89,30.20,10.0,NW,16.1,24.2,N/A,,Overcast,320,2013-11-27 00:52:00
7:33 PM,44.6,41.0,87,30.22,10.0,NW,19.6,24.2,N/A,,Overcast,320,2013-11-27 01:33:00
7:52 PM,45.0,41.0,86,30.23,10.0,NW,19.6,23.0,N/A,,Overcast,320,2013-11-27 01:52:00
8:52 PM,45.0,41.0,86,30.24,10.0,NW,13.8,-,N/A,,Overcast,320,2013-11-27 02:52:00
9:52 PM,45.0,41.0,86,30.26,10.0,WNW,11.5,-,N/A,,Overcast,300,2013-11-27 03:52:00
10:52 PM,45.0,41.0,86,30.26,10.0,WNW,9.2,-,N/A,,Overcast,300,2013-11-27 04:52:00
11:52 PM,43.0,39.9,89,30.27,10.0,NW,10.4,-,N/A,,Clear,310,2013-11-27 05:52:00